Flag for United Kingdom Weather past 2 weeks in Cardiff, Wales, United Kingdom

Now
54 °F

Cool.


Feels Like: 51 °F
Forecast: 46 / 63 °F
Wind: 8 mph from Northwest

Location: Wales Airport

Current Time: Sep 22, 2014 at 9:32:15 PM

Latest Report: Sep 22, 2014 at 8:50 PM


Visibility: 5 mi

Pressure: 30.27 "Hg

Humidity: 88%

Dew point: 50 °F

Location of CardiffLocation

Historic Weather in Cardiff — Graph

°F

Cardiff temperature yesterday

Maximum temperature yesterday: 64 °F (at 2:20 PM)
Minimum temperature yesterday: 50 °F (at 11:20 PM)
Average temperature yesterday: 59 °F

Past Weeks' High & Low Weather Summary

 TemperatureHumidityPressure
High73 °F (Sep 18, 4:50 PM)100% (Sep 18, 11:50 PM)30.36 "Hg (Sep 18, 11:50 PM)
Low46 °F (Sep 22, 4:20 AM)46% (Sep 8, 4:50 PM)29.77 "Hg (Sep 18, 4:20 AM)
Average61 °F80%30.08 "Hg
* Reported Sep 7 8:20 PM — Sep 22 8:20 PM, Cardiff, Weather by CustomWeather, © 2014

Note: Actual official high and low records may vary slightly from our data, if they occured in-between our weather recording intervals... More about our weather records

Advertising

Cardiff weather history for previous 24 hours

 ConditionsComfort  
Time TempWeatherWind HumidityBarometerVisibility
8:20 PM
Sep 22
54 °FClear.8 mph88%30.27 "Hg5 mi
7:50 PM57 °FClear.8 mph82%30.27 "Hg5 mi
7:20 PM57 °FClear.9 mph82%30.27 "Hg6 mi
6:50 PM59 °FClear.9 mph77%30.27 "Hg5 mi
6:20 PM61 °FClear.10 mph72%30.27 "Hg6 mi
5:50 PM63 °FMild.10 mph68%30.27 "HgN/A
5:20 PM63 °FPassing clouds.10 mph73%30.27 "HgN/A
4:50 PM64 °FPassing clouds.12 mph68%30.27 "HgN/A
4:20 PM64 °FPassing clouds.13 mph68%30.27 "HgN/A
3:50 PM64 °FPassing clouds.10 mph68%30.27 "HgN/A
3:20 PM64 °FPassing clouds.10 mph68%30.27 "HgN/A
2:50 PM64 °FPassing clouds.9 mph68%30.30 "Hg6 mi
2:20 PM63 °FPassing clouds.10 mph77%30.30 "HgN/A
1:50 PM63 °FPassing clouds.10 mph73%30.30 "HgN/A
1:20 PM63 °FPassing clouds.8 mph73%30.30 "HgN/A
12:50 PM61 °FPassing clouds.6 mph77%30.33 "HgN/A
12:20 PM61 °FPassing clouds.5 mph77%30.33 "Hg6 mi
11:50 AM61 °FClear.3 mph72%30.33 "Hg5 mi
11:20 AM59 °FClear.3 mph82%30.33 "Hg5 mi
10:50 AM59 °FClear.2 mph77%30.33 "Hg5 mi
10:20 AM57 °FClear.3 mph82%30.33 "Hg5 mi
9:50 AM55 °FClear.2 mph82%30.33 "Hg5 mi
9:20 AM54 °FClear.3 mph88%30.33 "Hg5 mi
8:50 AM52 °FClear.5 mph88%30.33 "Hg6 mi
8:20 AM50 °FClear.6 mph88%30.33 "Hg6 mi
7:50 AM46 °FFog.5 mph93%30.33 "Hg6 mi
7:20 AM46 °FFog.3 mph93%30.33 "Hg6 mi
6:50 AM46 °FClear.3 mph93%30.33 "Hg5 mi
6:20 AM46 °FClear.3 mph87%30.33 "Hg5 mi
5:50 AM46 °FCool.3 mph87%30.33 "Hg4 mi
5:20 AM48 °FCool.3 mph87%30.33 "Hg4 mi
4:50 AM46 °FCool.5 mph87%30.33 "Hg4 mi
4:20 AM46 °FCool.6 mph93%30.33 "Hg5 mi
3:50 AM50 °FCool.3 mph88%30.33 "HgN/A
3:20 AM50 °FCool.5 mph88%30.33 "HgN/A
2:50 AM50 °FCool.3 mph88%30.33 "HgN/A
2:20 AM48 °FCool.3 mph87%30.36 "Hg6 mi
1:50 AM50 °FClear.5 mph88%30.36 "Hg10 mi
12:50 AM52 °FClear.5 mph82%30.33 "Hg10 mi
12:20 AM52 °FClear.5 mph82%30.33 "Hg10 mi
11:50 PM
Sep 21
50 °FClear.6 mph88%30.33 "Hg10 mi
11:20 PM50 °FCool.6 mph88%30.33 "HgN/A
10:50 PM52 °FClear.7 mph82%30.33 "Hg10 mi
10:20 PM52 °FCool.6 mph82%30.33 "HgN/A
9:20 PM54 °FPassing clouds.6 mph82%30.33 "HgN/A
Weather by CustomWeather, © 2014

See weather overviewHow to use our weather pages